| time (UTC) | temp C | wind direction | speed KPH | gust KPH | rain 1hr cm | rain 24hr cm | rain mn cm | humidity % | barometer mb |
| 20260504041816 | 6 | 238 | 3.2 | 4.8 | 0.00 | 0.00 | 0.00 | 67 | 1015.3 |
| 20260504041313 | 6 | 223 | 4.8 | 11.3 | 0.00 | 0.00 | 0.00 | 67 | 1015.3 |
| 20260504040809 | 7 | 241 | 3.2 | 4.8 | 0.00 | 0.00 | 0.00 | 66 | 1015.1 |
| 20260504040307 | 7 | 71 | 1.6 | 6.4 | 0.00 | 0.00 | 0.00 | 65 | 1015.3 |
| 20260504035802 | 8 | 242 | 6.4 | 9.7 | 0.00 | 0.00 | 0.00 | 61 | 1015.0 |
| 20260504035300 | 8 | 228 | 4.8 | 11.3 | 0.00 | 0.00 | 0.00 | 58 | 1015.3 |
| 20260504034757 | 10 | 265 | 4.8 | 11.3 | 0.00 | 0.00 | 0.00 | 54 | 1015.3 |
| 20260504034254 | 9 | 237 | 3.2 | 9.7 | 0.00 | 0.00 | 0.00 | 55 | 1015.1 |
| 20260504033751 | 10 | 248 | 6.4 | 9.7 | 0.00 | 0.00 | 0.00 | 54 | 1015.3 |
| 20260504033249 | 10 | 33 | 1.6 | 6.4 | 0.00 | 0.00 | 0.00 | 52 | 1015.1 |
| 20260504032746 | 10 | 250 | 8.0 | 9.7 | 0.00 | 0.00 | 0.00 | 53 | 1015.4 |
| 20260504032243 | 10 | 226 | 3.2 | 12.9 | 0.00 | 0.00 | 0.00 | 54 | 1015.1 |
| 20260504031739 | 10 | 151 | 4.8 | 9.7 | 0.00 | 0.00 | 0.00 | 54 | 1015.0 |
| 20260504031237 | 10 | 231 | 0.0 | 6.4 | 0.00 | 0.00 | 0.00 | 53 | 1015.3 |
| 20260504030732 | 10 | 244 | 9.7 | 11.3 | 0.00 | 0.00 | 0.00 | 52 | 1015.1 |
| 20260504030230 | 10 | 162 | 3.2 | 9.7 | 0.00 | 0.00 | 0.00 | 53 | 1014.9 |
| 20260504025726 | 10 | 277 | 1.6 | 9.7 | 0.00 | 0.00 | 0.00 | 54 | 1015.0 |
| 20260504025223 | 10 | 243 | 3.2 | 11.3 | 0.00 | 0.00 | 0.00 | 55 | 1015.1 |
| 20260504024720 | 10 | 224 | 4.8 | 4.8 | 0.00 | 0.00 | 0.00 | 54 | 1015.3 |
| 20260504024217 | 10 | 222 | 9.7 | 12.9 | 0.00 | 0.00 | 0.00 | 54 | 1015.5 |
| 20260504023714 | 10 | 239 | 1.6 | 4.8 | 0.00 | 0.00 | 0.00 | 53 | 1015.4 |
| 20260504023209 | 10 | 227 | 6.4 | 12.9 | 0.00 | 0.00 | 0.00 | 53 | 1015.3 |
| 20260504022706 | 10 | 239 | 4.8 | 9.7 | 0.00 | 0.00 | 0.00 | 52 | 1015.1 |
| 20260504022202 | 10 | 231 | 4.8 | 9.7 | 0.00 | 0.00 | 0.00 | 53 | 1015.1 |
| 20260504021700 | 10 | 55 | 0.0 | 9.7 | 0.00 | 0.00 | 0.00 | 54 | 1015.0 |
| 20260504021156 | 10 | 208 | 3.2 | 11.3 | 0.00 | 0.00 | 0.00 | 52 | 1015.1 |
| 20260504020653 | 10 | 258 | 6.4 | 11.3 | 0.00 | 0.00 | 0.00 | 52 | 1015.3 |
| 20260504020149 | 10 | 20 | 3.2 | 9.7 | 0.00 | 0.00 | 0.00 | 53 | 1015.3 |
| 20260504015646 | 10 | 205 | 6.4 | 11.3 | 0.00 | 0.00 | 0.00 | 52 | 1015.1 |
| 20260504015143 | 10 | 238 | 6.4 | 9.7 | 0.00 | 0.00 | 0.00 | 53 | 1015.3 |
| 20260504014638 | 10 | 260 | 4.8 | 9.7 | 0.00 | 0.00 | 0.00 | 52 | 1015.3 |
| 20260504014136 | 10 | 230 | 1.6 | 6.4 | 0.00 | 0.00 | 0.00 | 52 | 1015.1 |
| 20260504013633 | 11 | 214 | 3.2 | 6.4 | 0.00 | 0.00 | 0.00 | 50 | 1015.3 |
| 20260504013130 | 10 | 230 | 8.0 | 20.9 | 0.00 | 0.00 | 0.00 | 50 | 1015.0 |
| 20260504012627 | 10 | 221 | 6.4 | 9.7 | 0.00 | 0.00 | 0.00 | 51 | 1015.1 |
| 20260504012125 | 11 | 251 | 14.5 | 16.1 | 0.00 | 0.00 | 0.00 | 49 | 1015.0 |
| 20260504011622 | 11 | 233 | 3.2 | 6.4 | 0.00 | 0.00 | 0.00 | 50 | 1014.9 |
| 20260504011118 | 11 | 121 | 3.2 | 9.7 | 0.00 | 0.00 | 0.00 | 47 | 1014.9 |
| 20260504010614 | 11 | 260 | 16.1 | 17.7 | 0.00 | 0.00 | 0.00 | 47 | 1014.8 |
| 20260504010110 | 12 | 229 | 11.3 | 14.5 | 0.00 | 0.00 | 0.00 | 47 | 1014.8 |
| 20260504005607 | 12 | 127 | 4.8 | 17.7 | 0.00 | 0.00 | 0.00 | 46 | 1014.8 |
| 20260504005104 | 12 | 246 | 14.5 | 25.7 | 0.00 | 0.00 | 0.00 | 46 | 1014.7 |
| 20260504004602 | 12 | 218 | 8.0 | 12.9 | 0.00 | 0.00 | 0.00 | 46 | 1014.8 |
| 20260504004059 | 12 | 244 | 9.7 | 30.6 | 0.00 | 0.00 | 0.00 | 46 | 1014.8 |
| 20260504003555 | 12 | 253 | 14.5 | 17.7 | 0.00 | 0.00 | 0.00 | 46 | 1014.8 |
| 20260504003052 | 12 | 234 | 9.7 | 17.7 | 0.00 | 0.00 | 0.00 | 46 | 1014.8 |
| 20260504002549 | 12 | 236 | 4.8 | 9.7 | 0.00 | 0.00 | 0.00 | 47 | 1014.5 |
| 20260504002046 | 12 | 244 | 11.3 | 16.1 | 0.00 | 0.00 | 0.00 | 45 | 1014.7 |
| 20260504001544 | 12 | 237 | 4.8 | 22.5 | 0.00 | 0.00 | 0.00 | 45 | 1014.6 |
| 20260504001039 | 12 | 247 | 6.4 | 11.3 | 0.00 | 0.00 | 0.00 | 45 | 1014.7 |
| 20260504000537 | 12 | 244 | 12.9 | 17.7 | 0.00 | 0.00 | 0.00 | 44 | 1014.4 |
| 20260504000035 | 12 | 230 | 9.7 | 20.9 | 0.00 | 0.00 | 0.00 | 44 | 1014.6 |
| 20260503235533 | 12 | 238 | 9.7 | 12.9 | 0.00 | 0.00 | 0.00 | 44 | 1014.5 |
| 20260503235029 | 12 | 255 | 8.0 | 12.9 | 0.00 | 0.00 | 0.00 | 43 | 1014.6 |
| 20260503234527 | 12 | 245 | 16.1 | 17.7 | 0.00 | 0.00 | 0.00 | 45 | 1014.6 |
| 20260503234025 | 13 | 273 | 6.4 | 17.7 | 0.00 | 0.00 | 0.00 | 42 | 1014.6 |
| 20260503233521 | 13 | 309 | 9.7 | 11.3 | 0.00 | 0.00 | 0.00 | 41 | 1014.5 |
| 20260503233017 | 13 | 240 | 11.3 | 16.1 | 0.00 | 0.00 | 0.00 | 43 | 1014.6 |
| 20260503232514 | 13 | 196 | 6.4 | 11.3 | 0.00 | 0.00 | 0.00 | 43 | 1014.5 |
| 20260503232012 | 13 | 240 | 24.1 | 38.6 | 0.00 | 0.00 | 0.00 | 43 | 1014.6 |
| 20260503231510 | 13 | 247 | 12.9 | 20.9 | 0.00 | 0.00 | 0.00 | 42 | 1014.3 |
| 20260503231006 | 13 | 245 | 19.3 | 22.5 | 0.00 | 0.00 | 0.00 | 43 | 1014.6 |
| 20260503230503 | 13 | 201 | 8.0 | 16.1 | 0.00 | 0.00 | 0.00 | 44 | 1014.7 |
| 20260503230000 | 13 | 198 | 12.9 | 14.5 | 0.00 | 0.00 | 0.00 | 42 | 1014.5 |
| 20260503225456 | 13 | 242 | 17.7 | 29.0 | 0.00 | 0.00 | 0.00 | 41 | 1014.3 |
| 20260503224952 | 13 | 235 | 14.5 | 16.1 | 0.00 | 0.00 | 0.00 | 42 | 1014.3 |
| 20260503224449 | 13 | 278 | 20.9 | 27.4 | 0.00 | 0.00 | 0.00 | 41 | 1014.4 |
| 20260503223947 | 13 | 251 | 8.0 | 12.9 | 0.00 | 0.00 | 0.00 | 41 | 1014.4 |
| 20260503223445 | 13 | 242 | 8.0 | 11.3 | 0.00 | 0.00 | 0.00 | 43 | 1014.5 |
| 20260503222940 | 14 | 241 | 24.1 | 33.8 | 0.00 | 0.00 | 0.00 | 41 | 1014.4 |
| 20260503222439 | 14 | 248 | 17.7 | 24.1 | 0.00 | 0.00 | 0.00 | 41 | 1014.4 |
| 20260503221937 | 14 | 268 | 17.7 | 25.7 | 0.00 | 0.00 | 0.00 | 40 | 1014.8 |
| 20260503221435 | 13 | 268 | 20.9 | 25.7 | 0.00 | 0.00 | 0.00 | 41 | 1014.6 |
| 20260503220931 | 13 | 249 | 16.1 | 29.0 | 0.00 | 0.00 | 0.00 | 44 | 1014.5 |
| 20260503220427 | 13 | 250 | 11.3 | 25.7 | 0.00 | 0.00 | 0.00 | 41 | 1014.5 |
| 20260503215925 | 13 | 228 | 17.7 | 17.7 | 0.00 | 0.00 | 0.00 | 42 | 1014.6 |
| 20260503215422 | 13 | 307 | 12.9 | 29.0 | 0.00 | 0.00 | 0.00 | 42 | 1014.7 |
| 20260503214919 | 13 | 254 | 8.0 | 14.5 | 0.00 | 0.00 | 0.00 | 44 | 1014.7 |
| 20260503214416 | 13 | 236 | 9.7 | 25.7 | 0.00 | 0.00 | 0.00 | 42 | 1014.8 |
| 20260503213914 | 13 | 247 | 9.7 | 14.5 | 0.00 | 0.00 | 0.00 | 42 | 1014.8 |
| 20260503213412 | 13 | 256 | 14.5 | 16.1 | 0.00 | 0.00 | 0.00 | 41 | 1014.8 |
| 20260503212908 | 13 | 266 | 17.7 | 30.6 | 0.00 | 0.00 | 0.00 | 41 | 1014.6 |
| 20260503212406 | 13 | 257 | 6.4 | 20.9 | 0.00 | 0.00 | 0.00 | 42 | 1014.5 |
| 20260503211903 | 13 | 317 | 3.2 | 30.6 | 0.00 | 0.00 | 0.00 | 41 | 1014.7 |
| 20260503211359 | 13 | 23 | 6.4 | 30.6 | 0.00 | 0.00 | 0.00 | 40 | 1014.6 |
| 20260503210854 | 14 | 287 | 12.9 | 33.8 | 0.00 | 0.00 | 0.00 | 43 | 1014.7 |
| 20260503210352 | 14 | 283 | 11.3 | 25.7 | 0.00 | 0.00 | 0.00 | 40 | 1014.6 |
| 20260503205847 | 15 | 254 | 9.7 | 20.9 | 0.00 | 0.00 | 0.00 | 40 | 1014.7 |
| 20260503205344 | 13 | 310 | 8.0 | 11.3 | 0.00 | 0.00 | 0.00 | 40 | 1014.6 |
| 20260503204840 | 13 | 297 | 3.2 | 4.8 | 0.00 | 0.00 | 0.00 | 40 | 1014.7 |
| 20260503204338 | 13 | 287 | 8.0 | 24.1 | 0.00 | 0.00 | 0.00 | 39 | 1014.6 |
| 20260503203835 | 13 | 285 | 11.3 | 25.7 | 0.00 | 0.00 | 0.00 | 40 | 1014.5 |
| 20260503203332 | 14 | 301 | 9.7 | 24.1 | 0.00 | 0.00 | 0.00 | 39 | 1014.7 |
| 20260503202829 | 13 | 261 | 9.7 | 20.9 | 0.00 | 0.00 | 0.00 | 41 | 1014.7 |
| 20260503202327 | 13 | 248 | 14.5 | 25.7 | 0.00 | 0.00 | 0.00 | 41 | 1014.8 |
| 20260503201825 | 13 | 33 | 6.4 | 33.8 | 0.00 | 0.00 | 0.00 | 39 | 1015.3 |
| 20260503201322 | 13 | 323 | 11.3 | 14.5 | 0.00 | 0.00 | 0.00 | 41 | 1014.9 |
| 20260503200820 | 13 | 262 | 22.5 | 27.4 | 0.00 | 0.00 | 0.00 | 40 | 1014.8 |
| 20260503200315 | 13 | 249 | 16.1 | 35.4 | 0.00 | 0.00 | 0.00 | 43 | 1015.0 |
| 20260503195813 | 13 | 49 | 6.4 | 27.4 | 0.00 | 0.00 | 0.00 | 41 | 1014.8 |
| 20260503195309 | 13 | 252 | 12.9 | 35.4 | 0.00 | 0.00 | 0.00 | 41 | 1015.1 |
| 20260503194807 | 14 | 252 | 16.1 | 20.9 | 0.00 | 0.00 | 0.00 | 41 | 1015.3 |
| 20260503194302 | 14 | 280 | 14.5 | 29.0 | 0.00 | 0.00 | 0.00 | 40 | 1015.3 |
| 20260503193758 | 14 | 240 | 9.7 | 38.6 | 0.00 | 0.00 | 0.00 | 38 | 1015.4 |
| 20260503193255 | 14 | 273 | 17.7 | 43.5 | 0.00 | 0.00 | 0.00 | 40 | 1015.3 |
| 20260503192751 | 13 | 255 | 14.5 | 22.5 | 0.00 | 0.00 | 0.00 | 38 | 1015.3 |
| 20260503192246 | 13 | 234 | 4.8 | 17.7 | 0.00 | 0.00 | 0.00 | 39 | 1015.5 |
| 20260503191743 | 12 | 216 | 24.1 | 35.4 | 0.00 | 0.00 | 0.00 | 41 | 1015.4 |
| 20260503191240 | 12 | 320 | 6.4 | 9.7 | 0.00 | 0.00 | 0.00 | 42 | 1015.4 |
| 20260503190737 | 12 | 328 | 11.3 | 16.1 | 0.00 | 0.00 | 0.00 | 40 | 1015.8 |
| 20260503190233 | 13 | 234 | 17.7 | 24.1 | 0.00 | 0.00 | 0.00 | 44 | 1015.4 |
| 20260503185731 | 13 | 233 | 8.0 | 12.9 | 0.00 | 0.00 | 0.00 | 45 | 1015.6 |
| 20260503185226 | 13 | 343 | 6.4 | 25.7 | 0.00 | 0.00 | 0.00 | 42 | 1015.8 |
| 20260503184721 | 13 | 292 | 29.0 | 38.6 | 0.00 | 0.00 | 0.00 | 40 | 1015.6 |
| 20260503184218 | 13 | 286 | 17.7 | 24.1 | 0.00 | 0.00 | 0.00 | 40 | 1015.8 |
| 20260503183714 | 13 | 320 | 8.0 | 24.1 | 0.00 | 0.00 | 0.00 | 41 | 1015.8 |
| 20260503183211 | 13 | 299 | 25.7 | 29.0 | 0.00 | 0.00 | 0.00 | 43 | 1015.7 |
| 20260503182709 | 13 | 321 | 9.7 | 24.1 | 0.00 | 0.00 | 0.00 | 41 | 1015.8 |
| 20260503182208 | 13 | 278 | 24.1 | 33.8 | 0.00 | 0.00 | 0.00 | 43 | 1016.0 |
| 20260503181704 | 13 | 300 | 17.7 | 27.4 | 0.00 | 0.00 | 0.00 | 43 | 1016.1 |
| 20260503181201 | 13 | 324 | 14.5 | 17.7 | 0.00 | 0.00 | 0.00 | 43 | 1015.9 |
| 20260503180657 | 13 | 341 | 16.1 | 22.5 | 0.00 | 0.00 | 0.00 | 43 | 1015.7 |
| 20260503180156 | 12 | 44 | 0.0 | 11.3 | 0.00 | 0.00 | 0.00 | 45 | 1016.3 |
| 20260503175652 | 12 | 283 | 19.3 | 24.1 | 0.00 | 0.00 | 0.00 | 43 | 1016.2 |
| 20260503175150 | 12 | 310 | 12.9 | 24.1 | 0.00 | 0.00 | 0.00 | 43 | 1016.1 |
| 20260503174646 | 12 | 295 | 22.5 | 27.4 | 0.00 | 0.00 | 0.00 | 42 | 1016.2 |
| 20260503174143 | 12 | 267 | 14.5 | 24.1 | 0.00 | 0.00 | 0.00 | 43 | 1016.3 |
| 20260503173638 | 12 | 258 | 29.0 | 35.4 | 0.00 | 0.00 | 0.00 | 45 | 1016.3 |
| 20260503173135 | 12 | 248 | 29.0 | 35.4 | 0.00 | 0.00 | 0.00 | 45 | 1015.9 |
| 20260503172632 | 12 | 273 | 19.3 | 27.4 | 0.00 | 0.00 | 0.00 | 44 | 1016.2 |
| 20260503172129 | 12 | 245 | 11.3 | 22.5 | 0.00 | 0.00 | 0.00 | 43 | 1016.3 |
| 20260503171626 | 12 | 281 | 24.1 | 25.7 | 0.00 | 0.00 | 0.00 | 44 | 1016.4 |
| 20260503171123 | 11 | 266 | 19.3 | 22.5 | 0.00 | 0.00 | 0.00 | 45 | 1016.5 |
| 20260503170620 | 12 | 317 | 24.1 | 25.7 | 0.00 | 0.00 | 0.00 | 45 | 1016.6 |
| 20260503170117 | 12 | 294 | 27.4 | 29.0 | 0.00 | 0.00 | 0.00 | 46 | 1016.7 |
| 20260503151012 | 10 | 330 | 9.7 | 25.7 | 0.00 | 0.00 | 0.00 | 47 | 1017.5 |
| 20260503150509 | 9 | 249 | 8.0 | 14.5 | 0.00 | 0.00 | 0.00 | 48 | 1017.3 |
| 20260503131401 | 6 | 303 | 19.3 | 25.7 | 0.00 | 0.00 | 0.00 | 63 | 1017.7 |
| 20260503130859 | 6 | 300 | 11.3 | 29.0 | 0.00 | 0.00 | 0.00 | 63 | 1017.5 |
| 20260503130356 | 6 | 279 | 11.3 | 12.9 | 0.00 | 0.00 | 0.00 | 65 | 1017.7 |
| 20260503110755 | 2 | 255 | 12.9 | 16.1 | 0.00 | 0.00 | 0.00 | 76 | 1017.2 |
| 20260503110252 | 2 | 298 | 4.8 | 14.5 | 0.00 | 0.00 | 0.00 | 74 | 1017.1 |
| 20260503100218 | 2 | 282 | 11.3 | 12.9 | 0.00 | 0.00 | 0.00 | 76 | 1016.5 |
| 20260503090148 | 2 | 279 | 6.4 | 9.7 | 0.00 | 0.00 | 0.00 | 74 | 1016.4 |
| 20260503081623 | 2 | 310 | 4.8 | 6.4 | 0.00 | 0.00 | 0.00 | 73 | 1016.0 |
| 20260503081120 | 2 | 280 | 8.0 | 12.9 | 0.00 | 0.00 | 0.00 | 74 | 1016.2 |
| 20260503080616 | 2 | 1 | 6.4 | 9.7 | 0.00 | 0.00 | 0.00 | 73 | 1016.1 |
| 20260503080113 | 2 | 329 | 6.4 | 12.9 | 0.00 | 0.00 | 0.00 | 73 | 1015.9 |
| 20260503072550 | 3 | 279 | 6.4 | 11.3 | 0.00 | 0.00 | 0.00 | 73 | 1015.7 |
| 20260503072048 | 3 | 279 | 9.7 | 14.5 | 0.00 | 0.00 | 0.00 | 72 | 1015.8 |
| 20260503071544 | 2 | 317 | 6.4 | 11.3 | 0.00 | 0.00 | 0.00 | 73 | 1015.8 |
| 20260503071041 | 2 | 306 | 4.8 | 4.8 | 0.00 | 0.00 | 0.00 | 73 | 1015.7 |
| 20260503070537 | 3 | 287 | 6.4 | 11.3 | 0.00 | 0.00 | 0.00 | 72 | 1015.8 |
| 20260503054951 | 3 | 33 | 3.2 | 11.3 | 0.00 | 0.00 | 0.00 | 70 | 1015.7 |
| 20260503054447 | 3 | 30 | 0.0 | 3.2 | 0.00 | 0.00 | 0.00 | 70 | 1015.7 |
| 20260503053945 | 3 | 232 | 4.8 | 9.7 | 0.00 | 0.00 | 0.00 | 70 | 1015.8 |
| 20260503053443 | 3 | 24 | 8.0 | 9.7 | 0.00 | 0.00 | 0.00 | 69 | 1015.6 |
| 20260503052939 | 3 | 339 | 4.8 | 9.7 | 0.00 | 0.00 | 0.00 | 69 | 1015.8 |
| 20260503052437 | 4 | 350 | 3.2 | 9.7 | 0.00 | 0.00 | 0.00 | 67 | 1015.6 |
| 20260503051932 | 3 | 12 | 11.3 | 20.9 | 0.00 | 0.00 | 0.00 | 68 | 1015.8 |
| 20260503051428 | 4 | 311 | 9.7 | 12.9 | 0.00 | 0.00 | 0.00 | 68 | 1016.0 |
| 20260503050926 | 4 | 239 | 3.2 | 6.4 | 0.00 | 0.00 | 0.00 | 67 | 1016.0 |
| 20260503050422 | 4 | 280 | 9.7 | 20.9 | 0.00 | 0.00 | 0.00 | 67 | 1016.0 |
| 20260503045920 | 4 | 293 | 9.7 | 11.3 | 0.00 | 0.00 | 0.00 | 67 | 1016.0 |
| 20260503045417 | 4 | 268 | 8.0 | 11.3 | 0.00 | 0.00 | 0.00 | 66 | 1016.0 |
| 20260503044913 | 4 | 298 | 4.8 | 11.3 | 0.00 | 0.00 | 0.00 | 66 | 1015.9 |
| 20260503044410 | 5 | 316 | 4.8 | 6.4 | 0.00 | 0.00 | 0.00 | 67 | 1015.9 |
| 20260503043908 | 5 | 340 | 9.7 | 12.9 | 0.00 | 0.00 | 0.00 | 66 | 1016.0 |
| 20260503043404 | 5 | 300 | 4.8 | 6.4 | 0.00 | 0.00 | 0.00 | 68 | 1015.8 |
| 20260503042900 | 5 | 336 | 6.4 | 9.7 | 0.00 | 0.00 | 0.00 | 67 | 1015.9 |
| 20260503042357 | 5 | 359 | 6.4 | 6.4 | 0.00 | 0.00 | 0.00 | 69 | 1015.9 |